• Join FlightAware (Why Join?)
  • Login
  • US Flag 
05:38PM EDT


 

Airport Tracker/Info


-or-


 

Live Flight TrackerFlight Track Log ✈ UPS1132 ✈ 17-May-2013 ✈ KPHL - KBUF

Flight Track Log - Related Links

Times and Time Zones

All times are in EDT time to prevent confusion due to time zone crossing. See the UPS1132 flight status page for this flight to view local times or setup timezone preferences in your user account.

Time Position Orientation Groundspeed Altitude Reporting Facility
EDT Latitude Longitude Course Direction KTS MPH feet Rate Location/Type
03:21AM 39.8609 -75.2728 237° Southwest 166 191 1,000  Level FlightAware ADS-B
03:21AM 39.8600 -75.2758 249° West 164 189 1,300 3,960 Climbing FlightAware ADS-B
03:21AM 39.8579 -75.2814 244° Southwest 164 189 1,600 2,280 Climbing FlightAware ADS-B
03:21AM 39.8555 -75.2874 242° Southwest 173 199 1,800 1,620 Climbing FlightAware ADS-B
03:21AM 39.8504 -75.2982 238° Southwest 190 219 2,100 1,740 Climbing FlightAware ADS-B
03:22AM 39.8427 -75.3143 238° Southwest 208 239 2,600 2,340 Climbing FlightAware ADS-B
03:22AM 39.8364 -75.3275 238° Southwest 210 242 3,200 3,000 Climbing FlightAware ADS-B
03:22AM 39.8343 -75.3324 241° Southwest 209 241 3,400 3,420 Climbing FlightAware ADS-B
03:22AM 39.8331 -75.3362 248° West 206 237 3,600 3,000 Climbing FlightAware ADS-B
03:22AM 39.8323 -75.3400 255° West 204 235 3,700 3,000 Climbing FlightAware ADS-B
03:22AM 39.8318 -75.3437 260° West 202 232 3,900 2,520 Climbing FlightAware ADS-B
03:22AM 39.8315 -75.3481 265° West 202 232 4,000 1,500 Climbing FlightAware ADS-B
03:22AM 39.8318 -75.3525 275° West 203 234 4,100 1,680 Climbing FlightAware ADS-B
03:22AM 39.8324 -75.3562 282° West 203 234 4,200 1,980 Climbing FlightAware ADS-B
03:22AM 39.8333 -75.3599 288° West 204 235 4,300 3,000 Climbing FlightAware ADS-B
03:22AM 39.8346 -75.3633 296° West 205 236 4,500 3,000 Climbing FlightAware ADS-B
03:22AM 39.8364 -75.3672 301° West 208 239 4,600 1,680 Climbing FlightAware ADS-B
03:22AM 39.8387 -75.3707 311° West 211 243 4,700 1,680 Climbing FlightAware ADS-B
03:22AM 39.8409 -75.3736 315° West 215 247 4,800 1,980 Climbing FlightAware ADS-B
03:22AM 39.8435 -75.3762 322° Northwest 217 250 4,900 1,980 Climbing FlightAware ADS-B
03:23AM 39.8481 -75.3802 326° Northwest 222 255 5,100 2,400 Climbing FlightAware ADS-B
03:23AM 39.8517 -75.3829 330° Northwest 226 260 5,300 3,180 Climbing FlightAware ADS-B
03:23AM 39.8624 -75.3900 333° Northwest 230 265 5,900 3,120 Climbing FlightAware ADS-B
03:23AM 39.8722 -75.3963 334° Northwest 235 270 6,400 3,000 Climbing FlightAware ADS-B
03:23AM 39.8844 -75.4044 333° Northwest 239 275 7,000 3,000 Climbing FlightAware ADS-B
03:23AM 39.8965 -75.4116 335° Northwest 243 280 7,600 2,820 Climbing FlightAware ADS-B
03:24AM 39.9077 -75.4171 339° North 249 287 8,100 3,000 Climbing FlightAware ADS-B
03:24AM 39.9252 -75.4250 341° North 253 291 8,900 2,880 Climbing FlightAware ADS-B
03:24AM 39.9423 -75.4330 340° North 259 298 9,600 2,460 Climbing FlightAware ADS-B
03:24AM 39.9696 -75.4464 339° North 272 313 10,500 1,680 Climbing FlightAware ADS-B
03:25AM 40.0088 -75.4647 340° North 316 364 11,100 1,260 Climbing FlightAware ADS-B
03:25AM 40.0531 -75.4843 341° North 345 397 11,800 1,860 Climbing FlightAware ADS-B
03:26AM 40.0979 -75.5044 341° North 357 411 13,000 2,580 Climbing FlightAware ADS-B
03:26AM 40.1448 -75.5256 341° North 361 415 14,300 2,640 Climbing FlightAware ADS-B
03:27AM 40.1916 -75.5469 341° North 364 419 15,600 2,580 Climbing FlightAware ADS-B
03:27AM 40.2092 -75.5569 337° Northwest 363 418 16,100 2,400 Climbing FlightAware ADS-B
03:27AM 40.2248 -75.5696 328° Northwest 360 414 16,500 2,400 Climbing FlightAware ADS-B
03:28AM 40.2511 -75.5980 321° Northwest 363 418 17,400 2,580 Climbing FlightAware ADS-B
03:28AM 40.2911 -75.6405 321° Northwest 369 425 18,700 2,460 Climbing FlightAware ADS-B
03:29AM 40.3307 -75.6836 320° Northwest 373 429 19,900 2,400 Climbing FlightAware ADS-B
03:29AM 40.3711 -75.7282 320° Northwest 377 434 21,100 2,160 Climbing FlightAware ADS-B
03:30AM 40.4120 -75.7734 320° Northwest 382 440 22,100 1,920 Climbing FlightAware ADS-B
03:30AM 40.4528 -75.8186 320° Northwest 387 445 23,100 1,620 Climbing FlightAware ADS-B
03:31AM 40.5069 -75.8784 320° Northwest 392 451 24,000 780 Climbing FlightAware ADS-B
03:31AM 40.5487 -75.9249 320° Northwest 391 450 24,000  Level FlightAware ADS-B
03:32AM 40.5907 -75.9717 320° Northwest 394 453 24,000  Level FlightAware ADS-B
03:32AM 40.6331 -76.0191 320° Northwest 396 456 24,000  Level FlightAware ADS-B
03:33AM 40.6754 -76.0664 320° Northwest 396 456 24,000  Level FlightAware ADS-B
03:33AM 40.7175 -76.1136 320° Northwest 395 455 24,000  Level FlightAware ADS-B
03:34AM 40.7599 -76.1612 320° Northwest 396 456 24,000  Level FlightAware ADS-B
03:34AM 40.8023 -76.2089 320° Northwest 396 456 24,000  Level FlightAware ADS-B
03:35AM 40.8441 -76.2561 320° Northwest 396 456 24,000  Level FlightAware ADS-B
03:35AM 40.8862 -76.3037 319° Northwest 397 457 24,000  Level FlightAware ADS-B
03:36AM 40.9286 -76.3516 320° Northwest 395 455 24,000  Level FlightAware ADS-B
03:36AM 40.9705 -76.3990 320° Northwest 394 453 24,000  Level FlightAware ADS-B
03:37AM 41.0126 -76.4467 319° Northwest 393 452 24,000  Level FlightAware ADS-B
03:37AM 41.0545 -76.4943 319° Northwest 392 451 24,000  Level FlightAware ADS-B
03:38AM 41.0958 -76.5412 319° Northwest 391 450 24,000  Level FlightAware ADS-B
03:38AM 41.1405 -76.5923 319° Northwest 391 450 24,000  Level FlightAware ADS-B
03:39AM 41.1819 -76.6397 319° Northwest 391 450 24,000  Level FlightAware ADS-B
03:40AM 41.2360 -76.7020 319° Northwest 390 449 24,000  Level FlightAware
03:40AM 41.2985 -76.7731 319° Northwest 391 450 24,000  Level FlightAware ADS-B
03:41AM 41.3689 -76.8540 319° Northwest 390 449 24,000  Level FlightAware ADS-B
03:42AM 41.4280 -76.9230 319° Northwest 388 447 24,000  Level FlightAware
03:43AM 41.5020 -77.0070 320° Northwest 387 445 24,000  Level FlightAware
03:44AM 41.5560 -77.0710 318° Northwest 387 445 24,000  Level FlightAware
03:45AM 41.6150 -77.1400 319° Northwest 386 444 24,000  Level FlightAware
03:45AM 41.6730 -77.2070 319° Northwest 386 444 24,000  Level FlightAware
03:46AM 41.7300 -77.2740 319° Northwest 386 444 24,000  Level FlightAware
03:47AM 41.7910 -77.3450 319° Northwest 386 444 24,000  Level FlightAware
03:47AM 41.8420 -77.4060 318° Northwest 388 447 24,000  Level FlightAware
03:48AM 41.9050 -77.4800 319° Northwest 389 448 24,000 -480 Level FlightAware
03:49AM 41.9590 -77.5450 318° Northwest 391 450 23,400 -1,020 Descending FlightAware
03:49AM 42.0110 -77.6060 319° Northwest 385 443 22,700 -1,080 Descending FlightAware
03:50AM 42.0730 -77.6800 318° Northwest 381 438 21,900 -1,380 Descending FlightAware
03:51AM 42.1240 -77.7410 318° Northwest 367 422 20,800 -1,680 Descending FlightAware
03:51AM 42.1710 -77.7960 319° Northwest 352 405 19,700 -1,800 Descending FlightAware
03:52AM 42.2260 -77.8620 318° Northwest 345 397 18,300 -1,920 Descending FlightAware
03:53AM 42.2720 -77.9180 318° Northwest 339 390 17,000 -2,100 Descending FlightAware
03:54AM 42.3250 -77.9800 319° Northwest 338 389 15,400 -2,220 Descending FlightAware
03:54AM 42.3720 -78.0370 318° Northwest 335 386 13,900 -2,220 Descending FlightAware
03:55AM 42.4240 -78.1000 318° Northwest 327 376 12,300 -2,100 Descending FlightAware
03:56AM 42.4680 -78.1540 318° Northwest 315 362 11,000 -1,080 Descending FlightAware
03:56AM 42.5120 -78.2070 318° Northwest 317 365 10,900 -120 Descending FlightAware
03:57AM 42.5610 -78.2670 318° Northwest 301 346 10,900 -180 Level FlightAware
03:58AM 42.6020 -78.3080 324° Northwest 262 302 10,700 -720 Descending FlightAware
03:59AM 42.6450 -78.3450 328° Northwest 248 285 9,900 -1,200 Descending FlightAware
03:59AM 42.6710 -78.3670 328° Northwest 248 285 9,300 -1,500 Descending FlightAware
03:59AM 42.6870 -78.3800 329° Northwest 248 285 8,900 -1,380 Descending FlightAware
04:00AM 42.7110 -78.4010 327° Northwest 246 283 8,400 -1,380 Descending FlightAware
04:00AM 42.7250 -78.4130 328° Northwest 247 284 8,000 -1,500 Descending FlightAware
04:00AM 42.7540 -78.4380 328° Northwest 246 283 7,300 -1,380 Descending FlightAware
04:01AM 42.7690 -78.4510 328° Northwest 246 283 7,000 -1,500 Descending FlightAware
04:01AM 42.7920 -78.4710 327° Northwest 245 282 6,300 -1,860 Descending FlightAware
04:02AM 42.8210 -78.4960 328° Northwest 242 278 5,300 -2,040 Descending FlightAware
04:02AM 42.8480 -78.5190 328° Northwest 245 282 4,300 -1,980 Descending FlightAware
04:02AM 42.8720 -78.5400 327° Northwest 244 281 3,500 -1,560 Descending FlightAware
04:03AM 42.8990 -78.5660 325° Northwest 234 269 2,900 -1,140 Descending FlightAware
04:03AM 42.9200 -78.5860 325° Northwest 217 250 2,500 -900 Descending FlightAware
04:04AM 42.9430 -78.6090 324° Northwest 196 226 2,100 -540 Descending FlightAware
04:04AM 42.9530 -78.6190 324° Northwest 178 205 2,100  Level FlightAware
04:05AM 42.9690 -78.6350 324° Northwest 151 174 2,100 -300 Level FlightAware
04:05AM 42.9750 -78.6440 312° West 142 163 1,900 -840 Descending FlightAware
04:05AM 42.9800 -78.6570 298° West 140 161 1,700 -720 Descending FlightAware
04:05AM 42.9810 -78.6650 280° West 139 160 1,600 -420 Descending FlightAware
04:06AM 42.9760 -78.6820 248° West 142 163 1,500 -540 Descending FlightAware
04:06AM 42.9660 -78.6960 226° Southwest 140 161 1,200 -360 Descending FlightAware
04:06AM 42.9560 -78.7090 224° Southwest 140 161 1,200  Level FlightAware
04:14AM 42.9333 -78.7167 289° West  Level FlightAware Approximate
04:15AM 42.9404 -78.7306 289° West  Level Estimated